Time,TemperatureF,DewpointF,PressureIn,WindDirection,WindDirectionDegrees,WindSpeedMPH,WindSpeedGustMPH,Humidity,HourlyPrecipIn,Conditions,Clouds,dailyrainin,SoftwareType,DateUTC
2013-02-27 00:00:00,36.7,35.9,28.59,NE,45,0.0,0.0,97,0.00,,SKC,0.99,WeatherDisplay:10.37,2013-02-27 05:00:00,
2013-02-27 00:05:00,36.7,35.9,28.60,NW,315,1.1,0.0,97,0.00,RA,SKC,0.00,WeatherDisplay:10.37,2013-02-27 05:05:00,
2013-02-27 00:10:00,36.7,35.9,28.59,SW,225,0.0,0.0,97,0.00,RA,SKC,0.00,WeatherDisplay:10.37,2013-02-27 05:10:00,
2013-02-27 00:15:00,36.7,35.9,28.59,SW,225,0.7,0.0,97,0.00,,SKC,0.00,WeatherDisplay:10.37,2013-02-27 05:15:00,
2013-02-27 00:20:00,36.5,35.7,28.59,NW,315,0.0,0.0,97,0.00,,SKC,0.00,WeatherDisplay:10.37,2013-02-27 05:20:00,
2013-02-27 00:25:00,36.7,35.9,28.59,SW,225,1.1,0.0,97,0.00,,SKC,0.00,WeatherDisplay:10.37,2013-02-27 05:25:00,
2013-02-27 00:30:00,36.7,35.9,28.60,SW,225,0.0,0.0,97,0.00,,SKC,0.00,WeatherDisplay:10.37,2013-02-27 05:30:00,
2013-02-27 00:35:00,36.7,35.9,28.60,South,180,0.0,0.0,97,0.00,,SKC,0.00,WeatherDisplay:10.37,2013-02-27 05:35:00,
2013-02-27 00:40:00,36.5,35.7,28.60,NW,315,0.0,0.0,97,0.00,,SKC,0.00,WeatherDisplay:10.37,2013-02-27 05:40:00,
2013-02-27 00:45:00,36.5,35.7,28.60,South,180,1.1,0.0,97,0.00,,SKC,0.00,WeatherDisplay:10.37,2013-02-27 05:45:00,
2013-02-27 00:50:00,36.5,35.7,28.61,South,180,0.0,0.0,97,0.00,,SKC,0.00,WeatherDisplay:10.37,2013-02-27 05:50:00,
2013-02-27 00:55:00,36.5,35.7,28.61,South,180,0.0,0.0,97,0.00,,SKC,0.00,WeatherDisplay:10.37,2013-02-27 05:55:00,
2013-02-27 01:00:00,36.5,35.7,28.61,South,180,1.1,0.0,97,0.00,,SKC,0.00,WeatherDisplay:10.37,2013-02-27 06:00:00,
2013-02-27 01:05:00,36.7,35.9,28.61,NW,315,0.0,0.0,97,0.00,,SKC,0.00,WeatherDisplay:10.37,2013-02-27 06:05:00,
2013-02-27 01:10:00,36.7,35.9,28.61,South,180,0.0,0.0,97,0.00,,SKC,0.00,WeatherDisplay:10.37,2013-02-27 06:10:00,
2013-02-27 01:15:00,36.5,35.7,28.61,NE,45,1.1,0.0,97,0.00,,SKC,0.00,WeatherDisplay:10.37,2013-02-27 06:15:00,
2013-02-27 01:20:00,36.5,35.7,28.61,NW,315,1.1,0.0,97,0.00,,SKC,0.00,WeatherDisplay:10.37,2013-02-27 06:20:00,
2013-02-27 01:25:00,36.5,35.7,28.61,NW,315,0.0,0.0,97,0.00,,SKC,0.00,WeatherDisplay:10.37,2013-02-27 06:25:00,
2013-02-27 01:30:00,36.5,35.7,28.61,NW,315,0.0,0.0,97,0.00,,SKC,0.00,WeatherDisplay:10.37,2013-02-27 06:30:00,
2013-02-27 01:35:00,36.5,35.7,28.60,South,180,1.1,0.0,97,0.00,,SKC,0.00,WeatherDisplay:10.37,2013-02-27 06:35:00,
2013-02-27 01:40:00,36.5,35.7,28.61,North,0,1.1,0.0,97,0.00,,SKC,0.00,WeatherDisplay:10.37,2013-02-27 06:40:00,
2013-02-27 01:45:00,36.5,35.7,28.61,North,0,0.0,0.0,97,0.00,,SKC,0.00,WeatherDisplay:10.37,2013-02-27 06:45:00,
2013-02-27 01:50:00,36.5,35.7,28.60,North,0,1.1,0.0,97,0.00,,SKC,0.00,WeatherDisplay:10.37,2013-02-27 06:50:00,
2013-02-27 01:55:00,36.5,35.7,28.61,West,270,1.1,0.0,97,0.00,,SKC,0.00,WeatherDisplay:10.37,2013-02-27 06:55:00,
2013-02-27 02:00:00,36.7,35.9,28.61,South,180,1.1,0.0,97,0.00,,SKC,0.00,WeatherDisplay:10.37,2013-02-27 07:00:00,
2013-02-27 02:05:00,36.7,35.9,28.60,West,270,0.0,0.0,97,0.00,,SKC,0.00,WeatherDisplay:10.37,2013-02-27 07:05:00,
2013-02-27 02:10:00,36.7,35.9,28.60,West,274,0.0,0.0,97,0.00,,SKC,0.00,WeatherDisplay:10.37,2013-02-27 07:10:00,
2013-02-27 02:15:00,36.7,35.9,28.60,South,180,0.0,0.0,97,0.00,,SKC,0.00,WeatherDisplay:10.37,2013-02-27 07:15:00,
2013-02-27 02:20:00,36.7,35.9,28.60,ENE,66,0.0,2.0,97,0.00,,SKC,0.00,WeatherDisplay:10.37,2013-02-27 07:20:00,
2013-02-27 02:25:00,36.7,35.9,28.60,North,0,1.1,0.0,97,0.00,,SKC,0.00,WeatherDisplay:10.37,2013-02-27 07:25:00,
2013-02-27 02:30:00,36.7,35.9,28.60,NNW,330,0.0,2.0,97,0.00,,SKC,0.00,WeatherDisplay:10.37,2013-02-27 07:30:00,
2013-02-27 02:35:00,36.7,35.9,28.60,NE,45,1.1,0.0,97,0.00,,SKC,0.00,WeatherDisplay:10.37,2013-02-27 07:35:00,
2013-02-27 02:40:00,36.7,35.9,28.60,SE,141,0.0,1.0,97,0.00,,SKC,0.00,WeatherDisplay:10.37,2013-02-27 07:40:00,
2013-02-27 02:45:00,36.7,35.9,28.60,West,270,0.0,0.0,97,0.00,,SKC,0.00,WeatherDisplay:10.37,2013-02-27 07:45:00,
2013-02-27 02:50:00,36.7,35.9,28.60,SE,135,0.0,0.0,97,0.00,,SKC,0.00,WeatherDisplay:10.37,2013-02-27 07:50:00,
2013-02-27 02:55:00,36.7,35.9,28.60,South,180,1.1,0.0,97,0.00,,SKC,0.00,WeatherDisplay:10.37,2013-02-27 07:55:00,
2013-02-27 03:00:00,36.7,35.9,28.60,SSE,154,0.0,1.0,97,0.00,,SKC,0.00,WeatherDisplay:10.37,2013-02-27 08:00:00,
2013-02-27 03:05:00,36.7,35.9,28.60,South,180,0.0,0.0,97,0.00,,SKC,0.00,WeatherDisplay:10.37,2013-02-27 08:05:00,
2013-02-27 03:10:00,36.7,35.9,28.60,NE,45,1.1,0.0,97,0.00,,SKC,0.00,WeatherDisplay:10.37,2013-02-27 08:10:00,
2013-02-27 03:15:00,36.7,35.9,28.61,North,0,0.0,0.0,97,0.00,,SKC,0.00,WeatherDisplay:10.37,2013-02-27 08:15:00,
2013-02-27 03:20:00,36.7,35.9,28.60,North,0,0.0,0.0,97,0.00,,SKC,0.00,WeatherDisplay:10.37,2013-02-27 08:20:00,
2013-02-27 03:25:00,36.5,35.7,28.60,North,0,0.0,0.0,97,0.00,,SKC,0.00,WeatherDisplay:10.37,2013-02-27 08:25:00,
2013-02-27 03:30:00,36.5,35.7,28.61,North,0,1.1,0.0,97,0.00,,SKC,0.00,WeatherDisplay:10.37,2013-02-27 08:30:00,
2013-02-27 03:35:00,36.3,35.6,28.60,North,0,1.1,0.0,97,0.00,,SKC,0.00,WeatherDisplay:10.37,2013-02-27 08:35:00,
2013-02-27 03:40:00,36.3,35.6,28.61,NW,315,1.1,0.0,97,0.00,,SKC,0.00,WeatherDisplay:10.37,2013-02-27 08:40:00,
2013-02-27 03:45:00,36.3,35.6,28.61,North,0,1.1,0.0,97,0.00,,SKC,0.00,WeatherDisplay:10.37,2013-02-27 08:45:00,
2013-02-27 03:50:00,36.5,35.7,28.61,West,270,1.1,0.0,97,0.00,,SKC,0.00,WeatherDisplay:10.37,2013-02-27 08:50:00,
2013-02-27 03:55:00,36.5,35.7,28.61,South,180,1.1,0.0,97,0.00,,SKC,0.00,WeatherDisplay:10.37,2013-02-27 08:55:00,
2013-02-27 04:01:00,36.5,35.7,28.61,SW,225,1.1,0.0,97,0.00,,SKC,0.00,WeatherDisplay:10.37,2013-02-27 09:01:00,
2013-02-27 04:06:00,36.5,35.7,28.61,NW,315,1.1,0.0,97,0.00,,SKC,0.00,WeatherDisplay:10.37,2013-02-27 09:06:00,
2013-02-27 04:11:00,36.5,35.7,28.62,SW,225,1.1,0.0,97,0.00,,SKC,0.00,WeatherDisplay:10.37,2013-02-27 09:11:00,
2013-02-27 04:16:00,36.5,35.7,28.62,North,0,1.1,0.0,97,0.00,,SKC,0.00,WeatherDisplay:10.37,2013-02-27 09:16:00,
2013-02-27 04:21:00,36.5,35.7,28.62,South,180,0.0,0.0,97,0.00,,SKC,0.00,WeatherDisplay:10.37,2013-02-27 09:21:00,
2013-02-27 04:26:00,36.5,35.7,28.63,North,0,1.1,0.0,97,0.00,,SKC,0.00,WeatherDisplay:10.37,2013-02-27 09:26:00,
2013-02-27 04:31:00,36.5,35.7,28.63,North,0,1.1,0.0,97,0.00,,SKC,0.00,WeatherDisplay:10.37,2013-02-27 09:31:00,
2013-02-27 04:36:00,36.5,35.7,28.63,North,0,0.0,0.0,97,0.00,,SKC,0.00,WeatherDisplay:10.37,2013-02-27 09:36:00,
2013-02-27 04:41:00,36.5,35.7,28.64,North,0,0.0,0.0,97,0.00,,SKC,0.00,WeatherDisplay:10.37,2013-02-27 09:41:00,
2013-02-27 04:46:00,36.3,35.6,28.64,North,0,0.0,0.0,97,0.00,,SKC,0.00,WeatherDisplay:10.37,2013-02-27 09:46:00,
2013-02-27 04:51:00,36.1,35.4,28.63,NW,315,1.1,0.0,97,0.00,,SKC,0.00,WeatherDisplay:10.37,2013-02-27 09:51:00,
2013-02-27 04:56:00,36.1,35.4,28.63,NW,315,0.0,0.0,97,0.00,,SKC,0.00,WeatherDisplay:10.37,2013-02-27 09:56:00,
2013-02-27 05:01:00,36.1,35.4,28.64,North,0,1.1,0.0,97,0.00,,SKC,0.00,WeatherDisplay:10.37,2013-02-27 10:01:00,
2013-02-27 05:06:00,36.1,35.4,28.64,North,0,0.0,0.0,97,0.00,,SKC,0.00,WeatherDisplay:10.37,2013-02-27 10:06:00,
2013-02-27 05:11:00,35.8,35.0,28.64,South,180,1.1,0.0,97,0.00,,SKC,0.00,WeatherDisplay:10.37,2013-02-27 10:11:00,
2013-02-27 05:16:00,35.6,34.8,28.64,SW,225,1.1,0.0,97,0.00,,SKC,0.00,WeatherDisplay:10.37,2013-02-27 10:16:00,
2013-02-27 05:21:00,35.2,34.5,28.64,North,0,1.1,0.0,97,0.00,,SKC,0.00,WeatherDisplay:10.37,2013-02-27 10:21:00,
2013-02-27 05:26:00,35.1,34.3,28.64,NW,315,0.0,0.0,97,0.00,,SKC,0.00,WeatherDisplay:10.37,2013-02-27 10:26:00,
2013-02-27 05:31:00,35.1,34.3,28.64,SW,225,1.1,0.0,97,0.00,,SKC,0.00,WeatherDisplay:10.37,2013-02-27 10:31:00,
2013-02-27 05:36:00,35.1,34.3,28.64,SW,225,0.0,0.0,97,0.00,,SKC,0.00,WeatherDisplay:10.37,2013-02-27 10:36:00,
2013-02-27 05:41:00,35.1,34.3,28.64,North,0,1.1,0.0,97,0.00,,SKC,0.00,WeatherDisplay:10.37,2013-02-27 10:41:00,
2013-02-27 05:46:00,35.1,34.3,28.65,North,0,1.1,0.0,97,0.00,,SKC,0.00,WeatherDisplay:10.37,2013-02-27 10:46:00,
2013-02-27 05:51:00,34.5,34.0,28.65,North,0,1.1,0.0,98,0.00,,SKC,0.00,WeatherDisplay:10.37,2013-02-27 10:51:00,
2013-02-27 05:56:00,34.3,33.8,28.65,North,0,1.1,0.0,98,0.00,,SKC,0.00,WeatherDisplay:10.37,2013-02-27 10:56:00,
2013-02-27 06:02:00,34.2,33.7,28.65,North,0,1.1,0.0,98,0.00,,SKC,0.00,WeatherDisplay:10.37,2013-02-27 11:02:00,
2013-02-27 06:07:00,34.2,33.7,28.65,South,180,1.1,0.0,98,0.00,,SKC,0.00,WeatherDisplay:10.37,2013-02-27 11:07:00,
2013-02-27 06:12:00,34.2,33.7,28.65,South,180,0.0,0.0,98,0.00,,SKC,0.00,WeatherDisplay:10.37,2013-02-27 11:12:00,
2013-02-27 06:17:00,34.2,33.7,28.65,North,0,1.1,0.0,98,0.00,,SKC,0.00,WeatherDisplay:10.37,2013-02-27 11:17:00,
2013-02-27 06:22:00,34.0,33.5,28.66,NW,315,0.0,0.0,98,0.00,,SKC,0.00,WeatherDisplay:10.37,2013-02-27 11:22:00,
2013-02-27 06:27:00,33.6,33.1,28.65,NW,315,1.1,0.0,98,0.00,,SKC,0.00,WeatherDisplay:10.37,2013-02-27 11:27:00,
2013-02-27 06:32:00,33.6,33.1,28.66,NW,315,1.1,0.0,98,0.00,,SKC,0.00,WeatherDisplay:10.37,2013-02-27 11:32:00,
2013-02-27 06:37:00,33.4,32.9,28.66,NW,315,1.1,0.0,98,0.00,,SKC,0.00,WeatherDisplay:10.37,2013-02-27 11:37:00,
2013-02-27 06:42:00,33.3,32.8,28.66,NW,315,0.0,0.0,98,0.00,,SKC,0.00,WeatherDisplay:10.37,2013-02-27 11:42:00,
2013-02-27 06:47:00,32.9,32.7,28.66,NW,315,1.1,0.0,99,0.00,,SKC,0.00,WeatherDisplay:10.37,2013-02-27 11:47:00,
2013-02-27 06:52:00,32.9,32.7,28.66,SE,135,1.1,0.0,99,0.00,,SKC,0.00,WeatherDisplay:10.37,2013-02-27 11:52:00,
2013-02-27 06:57:00,32.9,32.7,28.66,NE,45,1.1,0.0,99,0.00,,SKC,0.00,WeatherDisplay:10.37,2013-02-27 11:57:00,
2013-02-27 07:02:00,32.7,32.5,28.66,South,180,1.1,0.0,99,0.00,,SKC,0.00,WeatherDisplay:10.37,2013-02-27 12:02:00,
2013-02-27 07:07:00,32.7,32.5,28.67,South,180,1.1,0.0,99,0.00,,SKC,0.00,WeatherDisplay:10.37,2013-02-27 12:07:00,
2013-02-27 07:12:00,32.5,32.3,28.67,NW,315,1.1,0.0,99,0.00,,SKC,0.00,WeatherDisplay:10.37,2013-02-27 12:12:00,
2013-02-27 07:17:00,32.4,32.1,28.67,North,0,1.1,0.0,99,0.00,,SKC,0.00,WeatherDisplay:10.37,2013-02-27 12:17:00,
2013-02-27 07:22:00,32.2,31.9,28.67,NW,315,0.0,0.0,99,0.00,,SKC,0.00,WeatherDisplay:10.37,2013-02-27 12:22:00,
2013-02-27 07:27:00,32.4,32.1,28.68,North,0,0.0,0.0,99,0.00,,SKC,0.00,WeatherDisplay:10.37,2013-02-27 12:27:00,
2013-02-27 07:32:00,32.4,32.1,28.68,South,180,1.1,0.0,99,0.00,,SKC,0.00,WeatherDisplay:10.37,2013-02-27 12:32:00,
2013-02-27 07:37:00,32.5,32.3,28.68,North,0,1.1,0.0,99,0.00,,SKC,0.00,WeatherDisplay:10.37,2013-02-27 12:37:00,
2013-02-27 07:42:00,32.7,32.5,28.68,NE,45,0.0,0.0,99,0.00,,SKC,0.00,WeatherDisplay:10.37,2013-02-27 12:42:00,
2013-02-27 07:47:00,33.1,32.8,28.69,North,0,0.0,0.0,99,0.00,,SKC,0.00,WeatherDisplay:10.37,2013-02-27 12:47:00,
2013-02-27 07:52:00,33.8,33.3,28.69,North,0,1.1,0.0,98,0.00,,SKC,0.00,WeatherDisplay:10.37,2013-02-27 12:52:00,
2013-02-27 07:57:00,35.1,34.3,28.69,North,0,1.1,0.0,97,0.00,,SKC,0.00,WeatherDisplay:10.37,2013-02-27 12:57:00,
2013-02-27 08:03:00,36.5,35.7,28.69,North,0,1.1,0.0,97,0.00,,SKC,0.00,WeatherDisplay:10.37,2013-02-27 13:03:00,
2013-02-27 08:08:00,37.6,37.3,28.70,SE,135,0.0,0.0,99,0.00,,SKC,0.00,WeatherDisplay:10.37,2013-02-27 13:08:00,
2013-02-27 08:13:00,39.0,38.8,28.70,South,180,0.0,0.0,99,0.00,,SKC,0.00,WeatherDisplay:10.37,2013-02-27 13:13:00,
2013-02-27 08:18:00,41.0,40.7,28.70,North,0,0.0,0.0,99,0.00,,SKC,0.00,WeatherDisplay:10.37,2013-02-27 13:18:00,
2013-02-27 08:23:00,43.0,42.5,28.69,SW,225,0.0,0.0,98,0.00,,SKC,0.00,WeatherDisplay:10.37,2013-02-27 13:23:00,
2013-02-27 08:28:00,43.0,40.8,28.70,SSE,158,0.0,0.0,92,0.00,,SKC,0.00,WeatherDisplay:10.37,2013-02-27 13:28:00,
2013-02-27 08:33:00,43.5,39.9,28.71,SW,225,1.1,0.0,87,0.00,,SKC,0.00,WeatherDisplay:10.37,2013-02-27 13:33:00,
2013-02-27 08:38:00,44.8,41.1,28.71,SW,225,0.0,0.0,87,0.00,,SKC,0.00,WeatherDisplay:10.37,2013-02-27 13:38:00,
2013-02-27 08:43:00,46.6,42.6,28.71,SW,225,0.0,0.0,86,0.00,,SKC,0.00,WeatherDisplay:10.37,2013-02-27 13:43:00,
2013-02-27 08:48:00,47.5,41.6,28.71,SW,225,0.0,0.0,80,0.00,,SKC,0.00,WeatherDisplay:10.37,2013-02-27 13:48:00,
2013-02-27 08:53:00,47.3,40.5,28.71,South,180,0.0,0.0,77,0.00,,SKC,0.00,WeatherDisplay:10.37,2013-02-27 13:53:00,
2013-02-27 08:58:00,47.8,40.0,28.71,SW,225,0.0,0.0,74,0.00,,SKC,0.00,WeatherDisplay:10.37,2013-02-27 13:58:00,
2013-02-27 09:03:00,47.7,39.8,28.71,NE,45,0.0,0.0,74,0.00,,SKC,0.00,WeatherDisplay:10.37,2013-02-27 14:03:00,
2013-02-27 09:08:00,47.7,39.8,28.71,NE,45,0.0,0.0,74,0.00,,SKC,0.00,WeatherDisplay:10.37,2013-02-27 14:08:00,
2013-02-27 09:13:00,50.4,42.7,28.71,West,270,0.0,0.0,75,0.00,,SKC,0.00,WeatherDisplay:10.37,2013-02-27 14:13:00,
2013-02-27 09:18:00,51.4,41.2,28.71,South,180,0.0,0.0,68,0.00,,SKC,0.00,WeatherDisplay:10.37,2013-02-27 14:18:00,
2013-02-27 09:23:00,52.2,40.3,28.71,South,180,0.0,0.0,64,0.00,,SKC,0.00,WeatherDisplay:10.37,2013-02-27 14:23:00,
2013-02-27 09:28:00,52.2,39.9,28.70,SW,225,0.0,0.0,63,0.00,,SKC,0.00,WeatherDisplay:10.37,2013-02-27 14:28:00,
2013-02-27 09:33:00,52.7,40.0,28.70,SW,225,0.0,0.0,62,0.00,,SKC,0.00,WeatherDisplay:10.37,2013-02-27 14:33:00,
2013-02-27 09:38:00,53.1,38.2,28.70,South,180,1.1,0.0,57,0.00,,SKC,0.00,WeatherDisplay:10.37,2013-02-27 14:38:00,
2013-02-27 09:43:00,53.4,35.7,28.71,South,180,0.0,0.0,51,0.00,,SKC,0.00,WeatherDisplay:10.37,2013-02-27 14:43:00,
2013-02-27 09:48:00,53.6,35.9,28.71,SE,135,0.0,0.0,51,0.00,,SKC,0.00,WeatherDisplay:10.37,2013-02-27 14:48:00,
2013-02-27 09:53:00,54.0,35.2,28.70,NW,315,0.0,0.0,49,0.00,,SKC,0.00,WeatherDisplay:10.37,2013-02-27 14:53:00,
2013-02-27 09:58:00,54.3,38.0,28.70,South,180,0.0,0.0,54,0.00,,SKC,0.00,WeatherDisplay:10.37,2013-02-27 14:58:00,
2013-02-27 10:03:00,54.7,37.4,28.70,East,90,1.1,0.0,52,0.00,,SKC,0.00,WeatherDisplay:10.37,2013-02-27 15:03:00,
2013-02-27 10:08:00,54.7,36.4,28.70,South,180,0.0,0.0,50,0.00,,SKC,0.00,WeatherDisplay:10.37,2013-02-27 15:08:00,
2013-02-27 10:13:00,55.2,35.3,28.70,SW,225,0.0,0.0,47,0.00,,SKC,0.00,WeatherDisplay:10.37,2013-02-27 15:13:00,
2013-02-27 10:18:00,55.4,35.5,28.70,South,180,0.0,0.0,47,0.00,,SKC,0.00,WeatherDisplay:10.37,2013-02-27 15:18:00,
2013-02-27 10:23:00,54.3,33.4,28.70,South,180,0.0,0.0,45,0.00,,SKC,0.00,WeatherDisplay:10.37,2013-02-27 15:23:00,
2013-02-27 10:28:00,54.3,35.5,28.70,South,180,0.0,0.0,49,0.00,,SKC,0.00,WeatherDisplay:10.37,2013-02-27 15:28:00,
2013-02-27 10:33:00,54.3,34.5,28.71,SSE,158,0.0,0.0,47,0.00,,SKC,0.00,WeatherDisplay:10.37,2013-02-27 15:33:00,
2013-02-27 10:38:00,54.9,35.0,28.70,West,270,0.0,0.0,47,0.00,,SKC,0.00,WeatherDisplay:10.37,2013-02-27 15:38:00,
2013-02-27 10:43:00,55.6,36.7,28.70,SW,225,0.0,0.0,49,0.00,,SKC,0.00,WeatherDisplay:10.37,2013-02-27 15:43:00,
2013-02-27 10:48:00,56.7,37.2,28.70,North,0,0.0,0.0,48,0.00,,SKC,0.00,WeatherDisplay:10.37,2013-02-27 15:48:00,
2013-02-27 10:53:00,56.7,36.1,28.69,South,180,0.0,0.0,46,0.00,,SKC,0.00,WeatherDisplay:10.37,2013-02-27 15:53:00,
2013-02-27 10:58:00,57.6,36.4,28.69,South,180,0.0,0.0,45,0.00,,SKC,0.00,WeatherDisplay:10.37,2013-02-27 15:58:00,
2013-02-27 11:03:00,57.9,36.1,28.69,West,270,0.0,0.0,44,0.00,,SKC,0.00,WeatherDisplay:10.37,2013-02-27 16:03:00,
2013-02-27 11:08:00,57.9,36.1,28.69,SW,225,0.0,0.0,44,0.00,,SKC,0.00,WeatherDisplay:10.37,2013-02-27 16:08:00,
2013-02-27 11:13:00,57.0,34.7,28.69,SW,225,0.0,0.0,43,0.00,,SKC,0.00,WeatherDisplay:10.37,2013-02-27 16:13:00,
2013-02-27 11:18:00,57.4,36.2,28.68,South,180,0.0,0.0,45,0.00,,SKC,0.00,WeatherDisplay:10.37,2013-02-27 16:18:00,
2013-02-27 11:23:00,57.0,35.3,28.68,West,270,0.0,0.0,44,0.00,,SKC,0.00,WeatherDisplay:10.37,2013-02-27 16:23:00,
2013-02-27 11:28:00,57.9,34.9,28.68,South,180,0.0,0.0,42,0.00,,SKC,0.00,WeatherDisplay:10.37,2013-02-27 16:28:00,
2013-02-27 11:33:00,58.3,33.4,28.68,SW,225,0.0,0.0,39,0.00,,SKC,0.00,WeatherDisplay:10.37,2013-02-27 16:33:00,
2013-02-27 11:38:00,59.4,36.2,28.68,South,180,0.0,0.0,42,0.00,,SKC,0.00,WeatherDisplay:10.37,2013-02-27 16:38:00,
2013-02-27 11:43:00,58.3,34.0,28.68,East,90,0.0,0.0,40,0.00,,SKC,0.00,WeatherDisplay:10.37,2013-02-27 16:43:00,
2013-02-27 11:48:00,57.0,33.5,28.68,SW,225,0.0,0.0,41,0.00,,SKC,0.00,WeatherDisplay:10.37,2013-02-27 16:48:00,
2013-02-27 11:53:00,57.0,35.9,28.68,North,0,0.0,0.0,45,0.00,,SKC,0.00,WeatherDisplay:10.37,2013-02-27 16:53:00,
2013-02-27 11:58:00,58.6,36.8,28.67,NE,45,0.0,0.0,44,0.00,,SKC,0.00,WeatherDisplay:10.37,2013-02-27 16:58:00,
2013-02-27 12:03:00,59.0,36.5,28.67,West,270,0.0,0.0,43,0.00,,SKC,0.00,WeatherDisplay:10.37,2013-02-27 17:03:00,
2013-02-27 12:08:00,59.5,37.0,28.67,NW,315,0.0,0.0,43,0.00,,SKC,0.00,WeatherDisplay:10.37,2013-02-27 17:08:00,
2013-02-27 12:13:00,60.4,36.6,28.67,South,180,0.0,0.0,41,0.00,,SKC,0.00,WeatherDisplay:10.37,2013-02-27 17:13:00,
2013-02-27 12:18:00,61.2,37.3,28.66,NE,45,0.0,0.0,41,0.00,,SKC,0.00,WeatherDisplay:10.37,2013-02-27 17:18:00,
2013-02-27 12:23:00,60.1,32.3,28.66,North,0,0.0,0.0,35,0.00,,SKC,0.00,WeatherDisplay:10.37,2013-02-27 17:23:00,
2013-02-27 12:28:00,61.5,35.7,28.66,NE,45,0.0,0.0,38,0.00,,SKC,0.00,WeatherDisplay:10.37,2013-02-27 17:28:00,
2013-02-27 12:33:00,62.1,33.3,28.65,West,270,0.0,0.0,34,0.00,,SKC,0.00,WeatherDisplay:10.37,2013-02-27 17:33:00,
2013-02-27 12:38:00,62.1,35.5,28.65,East,90,0.0,0.0,37,0.00,,SKC,0.00,WeatherDisplay:10.37,2013-02-27 17:38:00,
2013-02-27 12:43:00,61.7,32.3,28.65,WNW,292,0.0,0.0,33,0.00,,SKC,0.00,WeatherDisplay:10.37,2013-02-27 17:43:00,
2013-02-27 12:48:00,61.0,32.4,28.64,North,0,0.0,0.0,34,0.00,,SKC,0.00,WeatherDisplay:10.37,2013-02-27 17:48:00,
2013-02-27 12:53:00,60.8,33.7,28.64,South,180,0.0,0.0,36,0.00,,SKC,0.00,WeatherDisplay:10.37,2013-02-27 17:53:00,
2013-02-27 12:58:00,61.2,32.5,28.64,East,90,0.0,0.0,34,0.00,,SKC,0.00,WeatherDisplay:10.37,2013-02-27 17:58:00,
2013-02-27 13:04:00,61.0,32.4,28.63,South,180,0.0,0.0,34,0.00,,SKC,0.00,WeatherDisplay:10.37,2013-02-27 18:04:00,
2013-02-27 13:09:00,60.8,33.0,28.63,East,90,0.0,0.0,35,0.00,,SKC,0.00,WeatherDisplay:10.37,2013-02-27 18:09:00,
2013-02-27 13:14:00,60.3,31.8,28.63,South,180,0.0,0.0,34,0.00,,SKC,0.00,WeatherDisplay:10.37,2013-02-27 18:14:00,
2013-02-27 13:19:00,59.9,34.2,28.62,NW,315,0.0,0.0,38,0.00,,SKC,0.00,WeatherDisplay:10.37,2013-02-27 18:19:00,
2013-02-27 13:24:00,57.9,34.3,28.61,NE,45,0.0,0.0,41,0.00,,SKC,0.00,WeatherDisplay:10.37,2013-02-27 18:24:00,
2013-02-27 13:29:00,57.2,35.5,28.61,West,270,0.0,0.0,44,0.00,,SKC,0.00,WeatherDisplay:10.37,2013-02-27 18:29:00,
2013-02-27 13:34:00,57.9,36.1,28.61,South,180,0.0,0.0,44,0.00,,SKC,0.00,WeatherDisplay:10.37,2013-02-27 18:34:00,
2013-02-27 13:39:00,59.2,36.7,28.61,SW,225,0.0,0.0,43,0.00,,SKC,0.00,WeatherDisplay:10.37,2013-02-27 18:39:00,
2013-02-27 13:44:00,58.6,35.6,28.61,SW,225,0.0,0.0,42,0.00,,SKC,0.00,WeatherDisplay:10.37,2013-02-27 18:44:00,
2013-02-27 13:49:00,57.9,35.5,28.61,South,180,0.0,0.0,43,0.00,,SKC,0.00,WeatherDisplay:10.37,2013-02-27 18:49:00,
2013-02-27 13:54:00,57.9,36.7,28.60,South,180,0.0,0.0,45,0.00,,SKC,0.00,WeatherDisplay:10.37,2013-02-27 18:54:00,
2013-02-27 13:59:00,57.9,36.1,28.60,North,0,0.0,0.0,44,0.00,,SKC,0.00,WeatherDisplay:10.37,2013-02-27 18:59:00,
2013-02-27 14:04:00,58.1,35.7,28.60,West,270,0.0,0.0,43,0.00,,SKC,0.00,WeatherDisplay:10.37,2013-02-27 19:04:00,
2013-02-27 14:09:00,58.6,36.2,28.60,NE,45,0.0,0.0,43,0.00,,SKC,0.00,WeatherDisplay:10.37,2013-02-27 19:09:00,
2013-02-27 14:14:00,58.8,35.2,28.60,South,180,0.0,0.0,41,0.00,,SKC,0.00,WeatherDisplay:10.37,2013-02-27 19:14:00,
2013-02-27 14:19:00,59.0,37.1,28.59,NE,45,0.0,0.0,44,0.00,,SKC,0.00,WeatherDisplay:10.37,2013-02-27 19:19:00,
2013-02-27 14:24:00,58.8,36.9,28.59,SW,225,0.0,0.0,44,0.00,,SKC,0.00,WeatherDisplay:10.37,2013-02-27 19:24:00,
2013-02-27 14:29:00,59.2,37.3,28.59,SSE,158,0.0,0.0,44,0.00,,SKC,0.00,WeatherDisplay:10.37,2013-02-27 19:29:00,
2013-02-27 14:34:00,58.6,36.2,28.59,SW,225,0.0,0.0,43,0.00,,SKC,0.00,WeatherDisplay:10.37,2013-02-27 19:34:00,
2013-02-27 14:39:00,58.6,36.2,28.59,East,90,0.0,0.0,43,0.00,,SKC,0.00,WeatherDisplay:10.37,2013-02-27 19:39:00,
2013-02-27 14:44:00,58.5,36.0,28.58,South,180,0.0,0.0,43,0.00,,SKC,0.00,WeatherDisplay:10.37,2013-02-27 19:44:00,
2013-02-27 14:49:00,58.1,36.9,28.58,NW,315,0.0,0.0,45,0.00,,SKC,0.00,WeatherDisplay:10.37,2013-02-27 19:49:00,
2013-02-27 14:54:00,57.9,37.2,28.58,SE,135,0.0,0.0,46,0.00,,SKC,0.00,WeatherDisplay:10.37,2013-02-27 19:54:00,
2013-02-27 14:59:00,57.6,36.4,28.58,SW,225,0.0,0.0,45,0.00,,SKC,0.00,WeatherDisplay:10.37,2013-02-27 19:59:00,
2013-02-27 15:04:00,57.2,36.6,28.58,West,270,0.0,0.0,46,0.00,,SKC,0.00,WeatherDisplay:10.37,2013-02-27 20:04:00,
2013-02-27 15:09:00,57.2,37.7,28.57,East,90,0.0,0.0,48,0.00,,SKC,0.00,WeatherDisplay:10.37,2013-02-27 20:09:00,
2013-02-27 15:14:00,57.4,37.8,28.57,North,0,0.0,0.0,48,0.00,,SKC,0.00,WeatherDisplay:10.37,2013-02-27 20:14:00,
2013-02-27 15:19:00,57.6,37.5,28.57,SW,225,0.0,0.0,47,0.00,,SKC,0.00,WeatherDisplay:10.37,2013-02-27 20:19:00,
2013-02-27 15:24:00,57.7,37.6,28.56,SW,225,0.0,0.0,47,0.00,,SKC,0.00,WeatherDisplay:10.37,2013-02-27 20:24:00,
2013-02-27 15:29:00,57.6,36.9,28.56,NW,315,0.0,0.0,46,0.00,,SKC,0.00,WeatherDisplay:10.37,2013-02-27 20:29:00,
2013-02-27 15:34:00,57.4,36.8,28.57,West,270,0.0,0.0,46,0.00,,SKC,0.00,WeatherDisplay:10.37,2013-02-27 20:34:00,
2013-02-27 15:39:00,57.0,37.0,28.57,North,0,0.0,0.0,47,0.00,,SKC,0.00,WeatherDisplay:10.37,2013-02-27 20:39:00,
2013-02-27 15:44:00,56.8,36.3,28.56,South,180,0.0,0.0,46,0.00,,SKC,0.00,WeatherDisplay:10.37,2013-02-27 20:44:00,
2013-02-27 15:49:00,57.0,37.0,28.56,SW,225,0.0,0.0,47,0.00,,SKC,0.00,WeatherDisplay:10.37,2013-02-27 20:49:00,
2013-02-27 15:54:00,56.7,36.6,28.56,West,270,0.0,0.0,47,0.00,,SKC,0.00,WeatherDisplay:10.37,2013-02-27 20:54:00,
2013-02-27 15:59:00,56.3,36.3,28.57,East,90,0.0,0.0,47,0.00,,SKC,0.00,WeatherDisplay:10.37,2013-02-27 20:59:00,
2013-02-27 16:04:00,56.3,37.9,28.56,South,180,0.0,0.0,50,0.00,,SKC,0.00,WeatherDisplay:10.37,2013-02-27 21:04:00,
2013-02-27 16:09:00,56.5,38.1,28.56,NW,315,0.0,0.0,50,0.00,,SKC,0.00,WeatherDisplay:10.37,2013-02-27 21:09:00,
2013-02-27 16:14:00,56.5,37.0,28.56,SW,225,0.0,0.0,48,0.00,,SKC,0.00,WeatherDisplay:10.37,2013-02-27 21:14:00,
2013-02-27 16:19:00,56.5,37.0,28.56,NW,315,0.0,0.0,48,0.00,,SKC,0.00,WeatherDisplay:10.37,2013-02-27 21:19:00,
2013-02-27 16:24:00,56.5,37.5,28.56,South,180,0.0,0.0,49,0.00,,SKC,0.00,WeatherDisplay:10.37,2013-02-27 21:24:00,
2013-02-27 16:29:00,56.7,36.6,28.56,South,180,0.0,0.0,47,0.00,,SKC,0.00,WeatherDisplay:10.37,2013-02-27 21:29:00,
2013-02-27 16:34:00,56.5,37.0,28.56,West,270,0.0,0.0,48,0.00,,SKC,0.00,WeatherDisplay:10.37,2013-02-27 21:34:00,
2013-02-27 16:39:00,56.5,37.5,28.56,SW,225,0.0,0.0,49,0.00,,SKC,0.00,WeatherDisplay:10.37,2013-02-27 21:39:00,
2013-02-27 16:44:00,56.3,37.4,28.56,North,0,0.0,0.0,49,0.00,,SKC,0.00,WeatherDisplay:10.37,2013-02-27 21:44:00,
2013-02-27 16:49:00,55.8,36.9,28.56,West,270,0.0,0.0,49,0.00,,SKC,0.00,WeatherDisplay:10.37,2013-02-27 21:49:00,
2013-02-27 16:54:00,55.6,36.7,28.56,North,0,0.0,0.0,49,0.00,,SKC,0.00,WeatherDisplay:10.37,2013-02-27 21:54:00,
2013-02-27 16:59:00,55.6,36.7,28.56,South,180,0.0,0.0,49,0.00,,SKC,0.00,WeatherDisplay:10.37,2013-02-27 21:59:00,
2013-02-27 17:04:00,55.4,37.1,28.56,NW,315,0.0,0.0,50,0.00,,SKC,0.00,WeatherDisplay:10.37,2013-02-27 22:04:00,
2013-02-27 17:09:00,55.4,37.1,28.56,NW,315,0.0,0.0,50,0.00,,SKC,0.00,WeatherDisplay:10.37,2013-02-27 22:09:00,
2013-02-27 17:14:00,55.2,36.9,28.56,South,180,0.0,0.0,50,0.00,,SKC,0.00,WeatherDisplay:10.37,2013-02-27 22:14:00,
2013-02-27 17:19:00,55.0,37.2,28.56,SW,225,0.0,0.0,51,0.00,,SKC,0.00,WeatherDisplay:10.37,2013-02-27 22:19:00,
2013-02-27 17:24:00,55.0,37.2,28.57,North,0,0.0,0.0,51,0.00,,SKC,0.00,WeatherDisplay:10.37,2013-02-27 22:24:00,
2013-02-27 17:29:00,54.9,37.1,28.57,West,270,0.0,0.0,51,0.00,,SKC,0.00,WeatherDisplay:10.37,2013-02-27 22:29:00,
2013-02-27 17:34:00,54.9,37.1,28.57,West,270,0.0,0.0,51,0.00,,SKC,0.00,WeatherDisplay:10.37,2013-02-27 22:34:00,
2013-02-27 17:39:00,54.5,37.2,28.57,NE,45,0.0,0.0,52,0.00,,SKC,0.00,WeatherDisplay:10.37,2013-02-27 22:39:00,
2013-02-27 17:45:00,54.3,37.1,28.57,SW,225,0.0,0.0,52,0.00,,SKC,0.00,WeatherDisplay:10.37,2013-02-27 22:45:00,
2013-02-27 17:50:00,54.1,36.9,28.57,SW,225,0.0,0.0,52,0.00,,SKC,0.00,WeatherDisplay:10.37,2013-02-27 22:50:00,
2013-02-27 17:55:00,54.0,37.2,28.57,SE,135,1.1,0.0,53,0.00,,SKC,0.00,WeatherDisplay:10.37,2013-02-27 22:55:00,
2013-02-27 18:00:00,53.4,37.2,28.58,NW,315,1.1,0.0,54,0.00,,SKC,0.00,WeatherDisplay:10.37,2013-02-27 23:00:00,
2013-02-27 18:05:00,52.9,37.6,28.58,SE,135,0.0,0.0,56,0.00,,SKC,0.00,WeatherDisplay:10.37,2013-02-27 23:05:00,
2013-02-27 18:10:00,52.7,37.9,28.58,NW,315,0.0,0.0,57,0.00,,SKC,0.00,WeatherDisplay:10.37,2013-02-27 23:10:00,
2013-02-27 18:15:00,52.3,37.5,28.58,North,0,1.1,0.0,57,0.00,,SKC,0.00,WeatherDisplay:10.37,2013-02-27 23:15:00,
2013-02-27 18:20:00,52.2,37.8,28.58,North,0,0.0,0.0,58,0.00,,SKC,0.00,WeatherDisplay:10.37,2013-02-27 23:20:00,
2013-02-27 18:25:00,51.6,37.7,28.58,East,90,0.0,0.0,59,0.00,,SKC,0.00,WeatherDisplay:10.37,2013-02-27 23:25:00,
2013-02-27 18:30:00,51.1,38.5,28.59,SW,225,1.1,0.0,62,0.00,,SKC,0.00,WeatherDisplay:10.37,2013-02-27 23:30:00,
2013-02-27 18:35:00,50.9,38.3,28.58,North,0,1.1,0.0,62,0.00,,SKC,0.00,WeatherDisplay:10.37,2013-02-27 23:35:00,
2013-02-27 18:40:00,50.4,38.2,28.59,NW,315,1.1,0.0,63,0.00,,SKC,0.00,WeatherDisplay:10.37,2013-02-27 23:40:00,
2013-02-27 18:45:00,50.0,37.9,28.59,North,0,2.3,0.0,63,0.00,,SKC,0.00,WeatherDisplay:10.37,2013-02-27 23:45:00,
2013-02-27 18:50:00,49.6,38.0,28.59,NE,45,0.0,0.0,64,0.00,,SKC,0.00,WeatherDisplay:10.37,2013-02-27 23:50:00,
2013-02-27 18:55:00,49.5,37.8,28.59,North,0,1.1,0.0,64,0.00,,SKC,0.00,WeatherDisplay:10.37,2013-02-27 23:55:00,
2013-02-27 19:00:00,49.3,38.4,28.60,North,0,0.0,0.0,66,0.00,,SKC,0.00,WeatherDisplay:10.37,2013-02-28 00:00:00,
2013-02-27 19:05:00,49.3,38.4,28.60,North,0,0.0,0.0,66,0.00,,SKC,0.00,WeatherDisplay:10.37,2013-02-28 00:05:00,
2013-02-27 19:10:00,48.6,37.7,28.60,North,0,0.0,0.0,66,0.00,,SKC,0.00,WeatherDisplay:10.37,2013-02-28 00:10:00,
2013-02-27 19:15:00,48.4,37.5,28.60,North,0,0.0,0.0,66,0.00,,SKC,0.00,WeatherDisplay:10.37,2013-02-28 00:15:00,
2013-02-27 19:20:00,48.0,37.6,28.61,North,0,1.1,0.0,67,0.00,,SKC,0.00,WeatherDisplay:10.37,2013-02-28 00:20:00,
2013-02-27 19:25:00,47.8,37.8,28.61,North,0,0.0,0.0,68,0.00,,SKC,0.00,WeatherDisplay:10.37,2013-02-28 00:25:00,
2013-02-27 19:30:00,47.8,38.2,28.61,North,0,0.0,0.0,69,0.00,,SKC,0.00,WeatherDisplay:10.37,2013-02-28 00:30:00,
2013-02-27 19:35:00,47.8,38.2,28.61,North,0,1.1,0.0,69,0.00,,SKC,0.00,WeatherDisplay:10.37,2013-02-28 00:35:00,
2013-02-27 19:40:00,47.5,39.3,28.61,North,0,1.1,0.0,73,0.00,,SKC,0.00,WeatherDisplay:10.37,2013-02-28 00:40:00,
2013-02-27 19:45:00,47.1,38.9,28.61,North,0,0.0,0.0,73,0.00,,SKC,0.00,WeatherDisplay:10.37,2013-02-28 00:45:00,
2013-02-27 19:50:00,46.9,38.7,28.61,North,0,0.0,0.0,73,0.00,,SKC,0.00,WeatherDisplay:10.37,2013-02-28 00:50:00,
2013-02-27 19:55:00,46.9,38.7,28.61,North,0,0.0,0.0,73,0.00,,SKC,0.00,WeatherDisplay:10.37,2013-02-28 00:55:00,
2013-02-27 20:00:00,46.8,38.6,28.61,SW,225,0.0,0.0,73,0.00,,SKC,0.00,WeatherDisplay:10.37,2013-02-28 01:00:00,
2013-02-27 20:05:00,46.8,38.6,28.61,North,0,1.1,0.0,73,0.00,,SKC,0.00,WeatherDisplay:10.37,2013-02-28 01:05:00,
2013-02-27 20:10:00,46.6,38.7,28.61,North,0,1.1,0.0,74,0.00,,SKC,0.00,WeatherDisplay:10.37,2013-02-28 01:10:00,
2013-02-27 20:15:00,46.4,38.6,28.61,North,0,1.1,0.0,74,0.00,,SKC,0.00,WeatherDisplay:10.37,2013-02-28 01:15:00,
2013-02-27 20:20:00,46.4,38.6,28.62,North,0,0.0,0.0,74,0.00,,SKC,0.00,WeatherDisplay:10.37,2013-02-28 01:20:00,
2013-02-27 20:25:00,46.4,38.9,28.62,North,0,0.0,0.0,75,0.00,,SKC,0.00,WeatherDisplay:10.37,2013-02-28 01:25:00,
2013-02-27 20:30:00,46.6,39.1,28.62,North,0,0.0,0.0,75,0.00,,SKC,0.00,WeatherDisplay:10.37,2013-02-28 01:30:00,
2013-02-27 20:35:00,46.2,39.1,28.62,South,180,0.0,0.0,76,0.00,,SKC,0.00,WeatherDisplay:10.37,2013-02-28 01:35:00,
2013-02-27 20:40:00,45.9,38.7,28.61,West,270,0.0,0.0,76,0.00,,SKC,0.00,WeatherDisplay:10.37,2013-02-28 01:40:00,
2013-02-27 20:45:00,45.5,39.0,28.61,South,180,1.1,0.0,78,0.00,,SKC,0.00,WeatherDisplay:10.37,2013-02-28 01:45:00,
2013-02-27 20:50:00,45.1,38.7,28.61,NE,45,0.0,0.0,78,0.00,,SKC,0.00,WeatherDisplay:10.37,2013-02-28 01:50:00,
2013-02-27 20:55:00,45.0,38.5,28.61,North,0,0.0,0.0,78,0.00,,SKC,0.00,WeatherDisplay:10.37,2013-02-28 01:55:00,
2013-02-27 21:00:00,44.6,38.5,28.61,East,90,1.1,0.0,79,0.00,,SKC,0.00,WeatherDisplay:10.37,2013-02-28 02:00:00,
2013-02-27 21:05:00,44.6,38.5,28.61,East,90,0.0,0.0,79,0.00,,SKC,0.00,WeatherDisplay:10.37,2013-02-28 02:05:00,
2013-02-27 21:10:00,44.2,38.1,28.61,SW,225,0.0,0.0,79,0.00,,SKC,0.00,WeatherDisplay:10.37,2013-02-28 02:10:00,
2013-02-27 21:15:00,44.2,38.5,28.62,North,0,0.0,0.0,80,0.00,,SKC,0.00,WeatherDisplay:10.37,2013-02-28 02:15:00,
2013-02-27 21:20:00,44.2,38.8,28.63,SW,225,1.1,0.0,81,0.00,,SKC,0.00,WeatherDisplay:10.37,2013-02-28 02:20:00,
2013-02-27 21:25:00,44.2,38.8,28.63,South,180,0.0,0.0,81,0.00,,SKC,0.00,WeatherDisplay:10.37,2013-02-28 02:25:00,
2013-02-27 21:30:00,43.9,39.1,28.63,West,270,0.0,0.0,83,0.00,,SKC,0.00,WeatherDisplay:10.37,2013-02-28 02:30:00,
2013-02-27 21:35:00,43.5,38.7,28.64,SW,225,0.0,0.0,83,0.00,,SKC,0.00,WeatherDisplay:10.37,2013-02-28 02:35:00,
2013-02-27 21:40:00,43.3,38.8,28.64,NE,45,0.0,0.0,84,0.00,,SKC,0.00,WeatherDisplay:10.37,2013-02-28 02:40:00,
2013-02-27 21:45:00,43.5,38.4,28.65,NE,45,0.0,0.0,82,0.00,,SKC,0.00,WeatherDisplay:10.37,2013-02-28 02:45:00,
2013-02-27 21:50:00,44.2,37.4,28.65,NNW,333,0.0,1.0,77,0.00,,SKC,0.00,WeatherDisplay:10.37,2013-02-28 02:50:00,
2013-02-27 21:55:00,45.7,35.7,28.66,NE,45,0.0,0.0,68,0.00,,SKC,0.00,WeatherDisplay:10.37,2013-02-28 02:55:00,
2013-02-27 22:00:00,47.1,35.2,28.66,North,354,0.0,0.0,63,0.00,,SKC,0.00,WeatherDisplay:10.37,2013-02-28 03:00:00,
2013-02-27 22:05:00,47.5,34.7,28.66,SW,225,0.0,0.0,61,0.00,,SKC,0.00,WeatherDisplay:10.37,2013-02-28 03:05:00,
2013-02-27 22:10:00,47.3,35.7,28.66,SW,225,0.0,0.0,64,0.00,,SKC,0.00,WeatherDisplay:10.37,2013-02-28 03:10:00,
2013-02-27 22:15:00,46.9,35.8,28.67,NW,315,0.0,0.0,65,0.00,,SKC,0.00,WeatherDisplay:10.37,2013-02-28 03:15:00,
2013-02-27 22:20:00,46.9,35.8,28.67,SW,225,1.1,0.0,65,0.00,,SKC,0.00,WeatherDisplay:10.37,2013-02-28 03:20:00,
2013-02-27 22:25:00,46.9,35.8,28.66,SW,225,0.0,0.0,65,0.00,,SKC,0.00,WeatherDisplay:10.37,2013-02-28 03:25:00,
2013-02-27 22:30:00,46.8,35.6,28.67,SSE,158,0.0,0.0,65,0.00,,SKC,0.00,WeatherDisplay:10.37,2013-02-28 03:30:00,
2013-02-27 22:35:00,46.6,34.7,28.66,North,0,0.0,0.0,63,0.00,,SKC,0.00,WeatherDisplay:10.37,2013-02-28 03:35:00,
2013-02-27 22:40:00,46.7,34.3,28.67,NE,55,0.0,0.0,62,0.00,,SKC,0.00,WeatherDisplay:10.37,2013-02-28 03:40:00,
2013-02-27 22:45:00,46.6,33.8,28.67,NW,315,0.0,0.0,61,0.00,,SKC,0.00,WeatherDisplay:10.37,2013-02-28 03:45:00,
2013-02-27 22:50:00,46.4,34.1,28.66,North,0,0.0,0.0,62,0.00,,SKC,0.00,WeatherDisplay:10.37,2013-02-28 03:50:00,
2013-02-27 22:55:00,46.4,33.3,28.66,NW,315,0.0,0.0,60,0.00,,SKC,0.00,WeatherDisplay:10.37,2013-02-28 03:55:00,
2013-02-27 23:00:00,46.2,32.7,28.67,NW,318,0.0,0.0,59,0.00,,SKC,0.00,WeatherDisplay:10.37,2013-02-28 04:00:00,
2013-02-27 23:05:00,46.2,32.7,28.67,NW,315,0.0,0.0,59,0.00,,SKC,0.00,WeatherDisplay:10.37,2013-02-28 04:05:00,
2013-02-27 23:10:00,45.9,32.3,28.67,WNW,297,0.0,1.0,59,0.00,,SKC,0.00,WeatherDisplay:10.37,2013-02-28 04:10:00,
2013-02-27 23:15:00,45.7,32.2,28.67,SW,225,0.0,0.0,59,0.00,,SKC,0.00,WeatherDisplay:10.37,2013-02-28 04:15:00,
2013-02-27 23:20:00,45.7,32.2,28.67,NW,315,1.1,0.0,59,0.00,,SKC,0.00,WeatherDisplay:10.37,2013-02-28 04:20:00,
2013-02-27 23:25:00,45.5,32.0,28.67,South,180,1.1,0.0,59,0.00,,SKC,0.00,WeatherDisplay:10.37,2013-02-28 04:25:00,
2013-02-27 23:30:00,45.1,31.7,28.67,SW,225,1.1,0.0,59,0.00,,SKC,0.00,WeatherDisplay:10.37,2013-02-28 04:30:00,
2013-02-27 23:35:00,45.0,31.1,28.67,NE,45,0.0,0.0,58,0.00,,SKC,0.00,WeatherDisplay:10.37,2013-02-28 04:35:00,
2013-02-27 23:40:00,45.0,30.6,28.67,SSW,197,0.0,2.0,57,0.00,,SKC,0.00,WeatherDisplay:10.37,2013-02-28 04:40:00,
2013-02-27 23:45:00,45.0,30.2,28.67,North,0,0.0,0.0,56,0.00,,SKC,0.00,WeatherDisplay:10.37,2013-02-28 04:45:00,
2013-02-27 23:50:00,44.8,30.0,28.66,North,350,0.0,2.0,56,0.00,,SKC,0.00,WeatherDisplay:10.37,2013-02-28 04:50:00,
2013-02-27 23:55:00,44.6,29.9,28.66,North,0,0.0,0.0,56,0.00,,SKC,0.00,WeatherDisplay:10.37,2013-02-28 04:55:00,